Location: Hanover
(52.3667°N, 9.7167°E)
Time: 04:28:15
(UTC+02:00)

Envisat - Pass Details

Date: 28 September 2024
Orbit: 762 x 764 km, 98.3° (Epoch: 04 October)

Event Time Altitude Azimuth Distance (km) Brightness Sun altitude
Rises 06:12:21 0° 7° (N) 3,240 6.5 -10.8°
Reaches altitude 10° 06:15:05 10° 353° (N) 2,309 5.5 -10.4°
Maximum altitude 06:18:57 22° 303° (WNW) 1,611 4.3 -9.8°
Enters shadow 06:22:25 12° 257° (WSW) 2,184 4.7 -9.3°
